Location: G?julap?du
(16.5372°N, 81.0979°E)
Time: 10:29:30
(UTC+00:00)

Cosmos 1980 - Pass Details

Date: 14 April 2026
Orbit: 839 x 844 km, 71.0° (Epoch: 12 May)

Event Time Altitude Azimuth Distance (km) Brightness Sun altitude
Rises 14:40:47 0° 199° (SSW) 3,383 6.8 -26.3°
Reaches altitude 10° 14:43:14 10° 201° (SSW) 2,448 6.1 -26.8°
Maximum altitude 14:48:50 77° 286° (WNW) 861 3.7 -28.1°
Drops below altitude 10° 14:54:28 10° 13° (NNE) 2,449 6.2 -29.3°
Sets 14:56:54 0° 15° (NNE) 3,383 6.9 -29.9°
